Cincinnati, OH

11:39 AM EST on December 12, 2019 (GMT -0500)
Cincinnati Municipal-Lunken

Weather History for KLUK - September, 2019

Change the Weather History Date:

Wednesday, September 18, 2019

  Actual Average Record
Temperature  
Mean Temperature 72 °F -  
Max Temperature 86 °F 77 °F 92 °F (1983)
Min Temperature 57 °F 57 °F 42 °F (1959)
Cooling Degree Days 6    
Growing Degree Days 22 (Base 50)    
Moisture  
Dew Point 60 °F    
Average Humidity 76    
Maximum Humidity 100    
Minimum Humidity 40    
Precipitation  
Precipitation 0.00 in - - ()
Sea Level Pressure  
Sea Level Pressure 30.09 in    
Wind  
Wind Speed 4 mph ()    
Max Wind Speed 12 mph    
Max Gust Speed -    
Visibility 8.8 miles    
Events Fog    
Averages and records for this station are not official NWS values.
T = Trace of Precipitation, MM = Missing Value Source: Averaged Metar Reports

Daily Weather History Graph

Daily Weather History Graph

Search for Another Location

Airport or City:

Astronomy

Sep. 18, 2019 Rise Set
Actual Time 7:21 AM EDT 7:41 PM EDT
Civil Twilight 6:54 AM EDT 8:08 PM EDT
Nautical Twilight 6:23 AM EDT 8:39 PM EDT
Astronomical Twilight 5:51 AM EDT 9:11 PM EDT
Moon 10:17 PM EDT (9/18) 11:22 AM EDT (9/18)
Length of Visible Light 13h 13m
Length of Day
12h 20m
Waning Gibbous, 82% of the Moon is Illuminated
Sep 18
Waning Gibbous
Sep 21
Last Quarter
Sep 28
New
Oct 5
First Quarter
Oct 13
Full

Hourly Weather History & Observations

Time (EDT) Temp. Heat Index Dew Point Humidity Pressure Visibility Wind Dir Wind Speed Gust Speed Precip Events Conditions
12:53 AM 62.1 °F - 60.1 °F 93% 30.10 in 10.0 mi NNE 3.5 mph - N/A   Clear
1:53 AM 63.0 °F - 59.0 °F 87% 30.11 in 10.0 mi NE 6.9 mph - N/A   Clear
2:53 AM 64.0 °F - 60.1 °F 87% 30.10 in 10.0 mi ENE 3.5 mph - N/A   Clear
3:53 AM 63.0 °F - 60.1 °F 90% 30.09 in 10.0 mi NE 5.8 mph - N/A   Clear
4:53 AM 59.0 °F - 59.0 °F 100% 30.09 in 6.0 mi Calm Calm - N/A   Clear
5:48 AM 57.2 °F - 57.2 °F 100% 30.10 in 1.5 mi Calm Calm - N/A   Clear
5:53 AM 57.9 °F - 57.9 °F 100% 30.09 in 0.5 mi Calm Calm - N/A Fog Fog
6:02 AM 59.0 °F - 59.0 °F 100% 30.10 in 2.0 mi Calm Calm - N/A   Clear
6:09 AM 60.1 °F - 59.0 °F 96% 30.11 in 8.0 mi Calm Calm - N/A   Clear
6:53 AM 57.2 °F - 57.2 °F 100% 30.11 in 10.0 mi NE 3.5 mph - N/A   Clear
7:53 AM 60.8 °F - 57.2 °F 88% 30.11 in 10.0 mi NE 3.5 mph - N/A   Clear
8:53 AM 64.4 °F - 57.2 °F 77% 30.11 in 10.0 mi NE 3.5 mph - N/A   Clear
9:53 AM 71.6 °F - 60.8 °F 69% 30.11 in 10.0 mi NE 9.2 mph - N/A   Clear
10:53 AM 75.2 °F - 62.6 °F 65% 30.12 in 10.0 mi NE 8.1 mph - N/A   Clear
11:53 AM 81.0 °F 82.5 °F 64.0 °F 56% 30.10 in 10.0 mi ENE 11.5 mph - N/A   Clear
12:53 PM 82.9 °F 84.0 °F 63.0 °F 51% 30.10 in 10.0 mi Variable 5.8 mph - N/A   Clear
1:53 PM 82.9 °F 84.0 °F 63.0 °F 51% 30.09 in 10.0 mi ENE 9.2 mph - N/A   Partly Cloudy
2:53 PM 84.9 °F 85.0 °F 61.0 °F 44% 30.08 in 10.0 mi ENE 11.5 mph - N/A   Partly Cloudy
3:53 PM 86.0 °F 85.7 °F 60.1 °F 41% 30.07 in 10.0 mi NE 8.1 mph - N/A   Partly Cloudy
4:53 PM 84.9 °F 84.4 °F 59.0 °F 41% 30.07 in 10.0 mi NE 9.2 mph - N/A   Partly Cloudy
5:53 PM 84.9 °F 84.2 °F 57.9 °F 40% 30.06 in 10.0 mi East 4.6 mph - N/A   Partly Cloudy
7:53 PM 73.9 °F - 62.1 °F 66% 30.06 in 10.0 mi Calm Calm - N/A   Clear
8:53 PM 66.9 °F - 62.1 °F 84% 30.08 in 10.0 mi Calm Calm - N/A   Clear
9:53 PM 66.0 °F - 61.0 °F 84% 30.09 in 10.0 mi Calm Calm - N/A   Clear
10:53 PM 69.1 °F - 57.9 °F 68% 30.10 in 10.0 mi North 4.6 mph - N/A   Clear
11:53 PM 63.0 °F - 60.1 °F 90% 30.10 in 10.0 mi Calm Calm - N/A   Clear